EW9733 Weather Reports


time (UTC)temp
C
wind
direction
speed
KPH
gust
KPH
rain 1hr
cm
rain 24hr
cm
rain mn
cm
humidity
%
barometer
mb
20260507180116 18 221 1.6 14.5 0.00 0.91 0.76 41 1004.8
20260507174515 17 204 1.6 11.3 0.00 0.91 0.76 43 1004.7
20260507173033 17 338 4.8 14.5 0.00 0.91 0.76 45 1004.8
20260507171511 18 348 3.2 9.7 0.00 0.91 0.76 52 1004.9
20260507170016 17 279 0.0 8.0 0.00 0.91 0.76 49 1005.0
20260507164519 17 214 3.2 8.0 0.00 0.91 0.76 56 1005.1
20260507163005 16 209 0.0 6.4 0.00 0.91 0.76 57 1005.3
20260507161505 16 12 1.6 11.3 0.00 0.91 0.76 57 1005.6
20260507160004 15 10 0.0 9.7 0.00 0.91 0.76 56 1005.8
20260507154503 15 226 1.6 14.5 0.00 0.91 0.76 57 1006.0
20260507153001 15 275 1.6 6.4 0.00 0.91 0.76 58 1006.0
20260507151501 15 252 1.6 9.7 0.00 0.91 0.76 60 1006.1
20260507150059 15 56 1.6 8.0 0.00 0.91 0.76 62 1006.2
20260507144554 15 321 0.0 11.3 0.00 0.91 0.76 68 1006.3
20260507143050 14 248 1.6 12.9 0.00 0.91 0.76 65 1006.5
20260507141548 13 255 1.6 9.7 0.00 0.91 0.76 65 1006.7
20260507140044 13 292 1.6 6.4 0.00 0.91 0.76 71 1006.6
20260507134538 13 360 0.0 6.4 0.00 0.91 0.76 78 1006.8
20260507133034 12 323 1.6 6.4 0.00 0.91 0.76 88 1006.8
20260507131531 11 21 3.2 9.7 0.00 0.91 0.76 92 1006.9
20260507130035 11 333 1.6 6.4 0.00 0.91 0.76 93 1006.9
20260507124535 10 244 0.0 4.8 0.00 0.91 0.76 93 1006.9
20260507123024 10 199 0.0 3.2 0.00 0.91 0.76 93 1007.1
20260507121523 10 261 0.0 3.2 0.10 0.91 0.76 93 1006.8
20260507120019 9 261 0.0 3.2 0.18 0.91 0.76 92 1006.8
20260507114516 9 259 0.0 0.0 0.20 0.91 0.76 92 1006.7
20260507113034 9 259 0.0 0.0 0.20 0.91 0.76 92 1006.5
20260507111513 9 259 0.0 1.6 0.10 0.81 0.66 92 1006.7
20260507110015 9 259 0.0 3.2 0.08 0.71 0.58 92 1006.6
20260507104511 10 264 0.0 3.2 0.05 0.71 0.56 92 1006.6
20260507103010 10 264 0.0 3.2 0.08 0.71 0.56 92 1006.6
20260507101513 10 252 0.0 1.6 0.08 0.71 0.56 92 1006.6
20260507100005 10 252 0.0 4.8 0.03 0.66 0.51 92 1006.4
20260507094502 10 286 0.0 4.8 0.08 0.66 0.51 91 1006.1
20260507093059 10 280 0.0 8.0 0.08 0.64 0.48 91 1006.2
20260507091632 11 336 0.0 14.5 0.15 0.64 0.48 91 1005.9
20260507090054 11 292 1.6 4.8 0.25 0.64 0.48 91 1005.7
20260507084603 11 309 0.0 4.8 0.41 0.58 0.43 91 1005.7
20260507083049 12 318 0.0 4.8 0.41 0.56 0.41 91 1005.3
20260507081553 12 277 0.0 3.2 0.33 0.48 0.33 91 1005.7
20260507080046 12 275 0.0 3.2 0.23 0.38 0.23 90 1005.5
20260507074548 12 337 0.0 11.3 0.03 0.18 0.03 90 1005.6
20260507073040 13 348 0.0 4.8 0.00 0.15 0.00 91 1004.6
20260507071539 13 262 0.0 6.4 0.00 0.15 0.00 92 1004.5
20260507070037 13 268 0.0 4.8 0.00 0.15 0.00 92 1004.6
20260507064537 13 264 0.0 1.6 0.00 0.15 0.00 93 1004.6
20260507063038 14 264 0.0 4.8 0.00 0.15 0.00 93 1004.6
20260507061536 14 264 0.0 1.6 0.00 0.15 0.00 93 1004.7
20260507060037 14 223 0.0 3.2 0.00 0.15 0.00 93 1005.1
20260507054530 14 220 0.0 3.2 0.00 0.15 0.00 93 1004.9
20260507053029 14 221 0.0 3.2 0.00 0.15 0.00 93 1005.0
20260507051528 13 242 1.6 4.8 0.00 0.15 0.00 93 1005.0
20260507050029 13 190 0.0 8.0 0.00 0.15 0.00 93 1005.4
20260507044525 13 238 0.0 4.8 0.00 0.15 0.00 93 1005.2
20260507043027 13 215 0.0 6.4 0.00 0.15 0.00 93 1004.9
20260507041522 13 267 0.0 6.4 0.00 0.15 0.00 93 1005.1
20260507040019 13 227 0.0 8.0 0.00 0.15 0.00 93 1005.2
20260507034523 13 175 0.0 8.0 0.00 0.15 0.15 93 1005.6
20260507033018 13 178 3.2 9.7 0.00 0.15 0.15 93 1005.3
20260507031519 13 182 1.6 11.3 0.00 0.15 0.15 93 1005.0
20260507030016 13 186 4.8 11.3 0.00 0.15 0.15 93 1005.0
20260507024519 13 211 1.6 6.4 0.00 0.15 0.15 93 1005.0
20260507023015 13 179 3.2 12.9 0.00 0.15 0.15 93 1004.7
20260507021514 13 196 1.6 9.7 0.00 0.15 0.15 93 1004.9
20260507020018 13 198 1.6 16.1 0.00 0.15 0.15 93 1005.0
20260507014511 13 146 4.8 12.9 0.00 0.15 0.15 93 1005.3
20260507013009 13 188 4.8 14.5 0.00 0.15 0.15 93 1005.4
20260507011512 13 240 1.6 14.5 0.00 0.15 0.15 92 1005.6
20260507010010 13 185 3.2 20.9 0.00 0.15 0.15 92 1005.4
20260507004509 13 219 8.0 12.9 0.03 0.15 0.15 92 1005.5
20260507003006 13 164 3.2 17.7 0.08 0.15 0.15 92 1005.6
20260507001514 13 178 4.8 17.7 0.08 0.15 0.15 92 1005.6
20260507000008 13 156 3.2 32.2 0.08 0.15 0.15 92 1005.5
20260506234502 13 203 3.2 16.1 0.05 0.13 0.13 91 1005.3
20260506233102 13 215 9.7 27.4 0.03 0.08 0.08 91 1005.3
20260506231606 13 186 3.2 14.5 0.05 0.08 0.08 91 1005.6
20260506230112 14 164 1.6 14.5 0.05 0.08 0.08 90 1005.6
20260506224555 14 207 4.8 19.3 0.05 0.08 0.08 90 1005.4
20260506223052 14 191 8.0 24.1 0.03 0.05 0.05 89 1005.8
20260506221604 15 239 6.4 17.7 0.00 0.03 0.03 88 1005.9
20260506220050 15 146 6.4 27.4 0.00 0.03 0.03 88 1006.1
20260506214554 15 204 4.8 27.4 0.00 0.03 0.03 88 1006.0
20260506213048 15 192 6.4 19.3 0.00 0.03 0.03 87 1006.0
20260506211546 15 140 6.4 25.7 0.00 0.03 0.03 87 1006.2
20260506210054 15 217 8.0 22.5 0.03 0.03 0.03 86 1006.3
20260506204547 15 144 4.8 29.0 0.03 0.03 0.03 86 1006.4
20260506203042 15 176 6.4 14.5 0.03 0.03 0.03 85 1006.4
20260506201541 16 197 1.6 22.5 0.03 0.03 0.03 84 1006.5
20260506200040 16 202 4.8 12.9 0.00 0.00 0.00 81 1006.5
20260506194540 16 140 6.4 12.9 0.00 0.00 0.00 79 1006.8
20260506193044 17 229 8.0 25.7 0.00 0.00 0.00 75 1006.7
20260506191539 17 202 11.3 33.8 0.00 0.00 0.00 74 1006.8
20260506190039 17 217 11.3 30.6 0.00 0.00 0.00 73 1006.5
20260506184543 17 221 9.7 29.0 0.00 0.00 0.00 72 1006.8
20260506183036 18 208 11.3 20.9 0.00 0.00 0.00 71 1006.8
20260506181540 18 189 11.3 35.4 0.00 0.00 0.00 71 1006.9